Location: Lancaster
(34.6980°N, 118.1360°W)
Time: 00:49:37
(UTC-07:00)

Vanguard 2 Rocket - Visible Passes

Search period start: 25 June 2018 00:00
Search period end: 05 July 2018 00:00
Orbit: 553 x 3328 km, 32.9° (Epoch: 24 June)

Date Brightness Start Highest point End Pass type
(mag) Time Alt. Az. Time Alt. Az. Time Alt. Az.
28 Jun 10.5 05:05:40 10° SSE 05:11:34 13° SE 05:18:21 10° ESE visible
01 Jul 10.3 04:21:04 10° SE 04:24:50 12° SE 04:29:03 10° ESE visible
03 Jul 9.9 04:30:16 10° S 04:37:50 20° SE 04:47:54 10° E visible
